Regional Weather Roundup
Issued by NWS

Home | Current Version | Previous Version | Text Only | Print | Product List | Glossary On
Versions: 1 2 3 4 5 6 7 8 9 10 11 12 13 14 15 16 17 18 19 20 21 22 23 24 25 26 27 28
000
ASUS44 KBMX 181410
RWRAL

ALABAMA REGIONAL WEATHER ROUNDUP
NATIONAL WEATHER SERVICE BIRMINGHAM AL
900 AM CDT FRI APR 18 2014

NOTE: "FAIR" INDICATES FEW OR NO CLOUDS BELOW 12,000 FEET
WITH NO SIGNIFICANT WEATHER AND/OR OBSTRUCTIONS TO VISIBILITY.

THE REMARK "TC" DENOTES TEMPERATURE IN DEGREES CELSIUS.

ALZ001>011-014-016>018-020-181500-
NORTH ALABAMA

CITY           SKY/WX    TMP DP  RH WIND       PRES   REMARKS
MUSCLE SHOALS  CLOUDY    60  45  57 E5        30.29R
HUNTSVILLE     CLOUDY    59  39  47 E13       30.28R
DECATUR        LGT RAIN  58  41  53 E7        30.29R
HALEYVILLE     LGT RAIN  52  47  83 VRB5      30.30R
GADSDEN        NOT AVBL
$$

ALZ012-013-022-023-030>036-040>044-181500-
WEST CENTRAL ALABAMA

CITY           SKY/WX    TMP DP  RH WIND       PRES   REMARKS
TUSCALOOSA     LGT RAIN  55  52  89 NE8       30.24F FOG
$$

ALZ015-024>027-033>036-040>044-181500-
CENTRAL ALABAMA

CITY           SKY/WX    TMP DP  RH WIND       PRES   REMARKS
BIRMINGHAM     LGT RAIN  53  48  83 NE8       30.28S
MONTGOMERY     RAIN      55  53  93 NE14G22   30.20S FOG
SHELBY CO ARPT HVY RAIN  53  52  96 VRB6      30.26R VSB 1
MAXWELL AFB    RAIN      58  57  96 NE10      30.20S FOG
GREENVILLE     RAIN      55  53  93 NE7G17    30.14F FOG
$$

ALZ019-021-028-029-037-038-045>048-181500-
EAST CENTRAL ALABAMA

CITY           SKY/WX    TMP DP  RH WIND       PRES   REMARKS
ANNISTON       RAIN      52  49  89 E7        30.29R FOG
ALEXANDER CITY RAIN      55  51  83 NE7       30.25S
AUBURN         CLOUDY    50  48  93 E14       30.25S
$$

ALZ051>064-181500-
SOUTHWEST ALABAMA

CITY           SKY/WX    TMP DP  RH WIND       PRES   REMARKS
MOBILE         LGT RAIN  59  59 100 NE15G23   30.08F FOG
BROOKLEY FIELD LGT RAIN  60  57  89 N14       30.08S
EVERGREEN      LGT RAIN  57  54  89 NE9       30.14S FOG
$$

ALZ049-050-065>069-181500-
SOUTHEAST ALABAMA

CITY           SKY/WX    TMP DP  RH WIND       PRES   REMARKS
DOTHAN         HVY RAIN  54  54 100 NE12G23   30.15R FOG
OZARK          HVY RAIN  55  54  96 NE15      30.10F FOG
TROY           LGT RAIN  55  52  89 NE13      30.16F
EUFAULA        CLOUDY    54  52  93 NE7       30.18F FOG
$$



USA.gov is the U.S. government's official web portal to all federal, state and local government web resources and services.